Location: Christianberg
(48.9086°N, 14.0209°E)
Time: 10:21:33
(UTC+00:00)

SL-4 R/B - Visible Passes

Search period start: 23 October 2021 00:00
Search period end: 02 November 2021 00:00
Orbit: 427 x 661 km, 51.6° (Epoch: 22 October)

Date Brightness Start Highest point End Pass type
(mag) Time Alt. Az. Time Alt. Az. Time Alt. Az.
23 Oct 2.7 02:57:25 54° E 02:57:25 54° E 03:00:42 10° ESE visible
23 Oct 2.8 04:32:58 16° W 04:35:55 36° SW 04:39:37 10° SSE visible
24 Oct 3.3 02:50:45 40° ESE 02:50:45 40° ESE 02:53:27 10° ESE visible
24 Oct 3.1 04:26:19 19° W 04:28:32 30° SW 04:32:04 10° SSE visible
25 Oct 3.9 02:44:11 28° ESE 02:44:11 28° ESE 02:46:11 10° ESE visible
25 Oct 3.3 04:19:45 20° WSW 04:21:07 24° SW 04:24:26 10° SSE visible
26 Oct 4.4 02:37:43 18° ESE 02:37:43 18° ESE 02:38:53 10° ESE visible
26 Oct 3.6 04:13:18 19° SW 04:13:41 20° SW 04:16:42 10° S visible
27 Oct 4.9 02:31:22 11° SE 02:31:22 11° SE 02:31:32 10° SE visible
27 Oct 4.0 04:06:57 15° SW 04:06:57 15° SW 04:08:46 10° S visible
